Alturas, CA

8:08 AM PDT on August 24, 2016 (GMT -0700)
Alturas Municipal

Weather History for KAAT - August, 2013

Change the Weather History Date:

Friday, August 30, 2013

  Actual Average Record
Temperature  
Mean Temperature 63 °F 61 °F  
Max Temperature 88 °F 83 °F 98 °F (1950)
Min Temperature 38 °F 40 °F 25 °F (1908)
Degree Days  
Heating Degree Days 2 4  
Month to date heating degree days 66 65  
Since 1 June heating degree days 226 286  
Since 1 July heating degree days 70 106  
Cooling Degree Days 0 1  
Month to date cooling degree days 39 55  
Year to date cooling degree days 255 150  
Since 1 June cooling degree days 255 150  
Growing Degree Days 13 (Base 50)    
Moisture  
Dew Point 34 °F    
Average Humidity 44    
Maximum Humidity 76    
Minimum Humidity 12    
Precipitation  
Precipitation 0.00 in 0.02 in 0.40 in (1953)
Month to date precipitation 0.72 0.35  
Year to date precipitation 5.15 9.13  
Sea Level Pressure  
Sea Level Pressure 30.08 in    
Wind  
Wind Speed 4 mph (West)    
Max Wind Speed 17 mph    
Max Gust Speed 23 mph    
Visibility 10 miles    
Events      
T = Trace of Precipitation, MM = Missing Value Source: NWS Daily Summary

Daily Weather History Graph

Daily Weather History Graph

Search for Another Location

Airport or City:

Trip Planner

Search our weather history database for the weather conditions in past years. The results will help you decide how hot, cold, wet, or windy it might be!

Date:

Astronomy

Aug. 30, 2013 Rise Set
Actual Time 6:26 AM PDT 7:38 PM PDT
Civil Twilight 5:58 AM PDT 8:06 PM PDT
Nautical Twilight 5:23 AM PDT 8:40 PM PDT
Astronomical Twilight 4:47 AM PDT 9:16 PM PDT
Moon 1:07 AM PDT (8/30) 3:59 PM PDT (8/30)
Length of Visible Light 14h 08m
Length of Day
13h 11m
Waning Crescent, 28% of the Moon is Illuminated
Aug 30
Waning Crescent
Sep 5
New
Sep 12
First Quarter
Sep 19
Full
Sep 26
Last Quarter

Hourly Weather History & Observations

Time (PDT) Temp. Dew Point Humidity Pressure Visibility Wind Dir Wind Speed Gust Speed Precip Events Conditions
12:55 AM 48.9 °F 35.1 °F 59% 30.10 in 10.0 mi Calm Calm - N/A   Clear
1:55 AM 46.9 °F 35.1 °F 63% 30.10 in 10.0 mi Calm Calm - N/A   Clear
2:55 AM 44.1 °F 34.0 °F 68% 30.11 in 10.0 mi Calm Calm - N/A   Clear
3:55 AM 44.1 °F 34.0 °F 68% 30.11 in 10.0 mi Calm Calm - N/A   Clear
4:55 AM 41.0 °F 33.1 °F 73% 30.12 in 10.0 mi Calm Calm - N/A   Clear
5:55 AM 39.0 °F 32.0 °F 76% 30.14 in 10.0 mi Calm Calm - N/A   Clear
6:55 AM 39.9 °F 32.0 °F 73% 30.16 in 10.0 mi Calm Calm - N/A   Clear
7:55 AM 52.0 °F 37.0 °F 57% 30.15 in 10.0 mi Calm Calm - N/A   Clear
8:55 AM 60.1 °F 37.9 °F 44% 30.15 in 10.0 mi Calm Calm - N/A   Clear
9:55 AM 68.0 °F 35.1 °F 30% 30.12 in 10.0 mi Calm Calm - N/A   Clear
10:55 AM 73.9 °F 30.0 °F 20% 30.12 in 10.0 mi Calm Calm - N/A   Clear
11:55 AM 78.1 °F 30.0 °F 17% 30.09 in 10.0 mi Calm Calm - N/A   Clear
12:55 PM 82.0 °F 30.0 °F 15% 30.07 in 10.0 mi South 8.1 mph - N/A   Clear
1:55 PM 84.0 °F 30.0 °F 14% 30.05 in 10.0 mi WSW 8.1 mph - N/A   Clear
2:55 PM 87.1 °F 28.9 °F 12% 30.02 in 10.0 mi NNW 8.1 mph - N/A   Clear
3:55 PM 87.1 °F 30.9 °F 13% 30.01 in 10.0 mi West 10.4 mph 18.4 mph N/A   Clear
4:55 PM 86.0 °F 34.0 °F 16% 30.01 in 10.0 mi West 15.0 mph 20.7 mph N/A   Clear
5:55 PM 84.9 °F 34.0 °F 16% 30.01 in 10.0 mi West 17.3 mph 20.7 mph N/A   Clear
6:55 PM 82.0 °F 36.0 °F 19% 30.01 in 10.0 mi West 13.8 mph - N/A   Clear
7:55 PM 73.9 °F 35.1 °F 24% 30.01 in 10.0 mi West 4.6 mph - N/A   Clear
8:55 PM 69.1 °F 35.1 °F 29% 30.03 in 10.0 mi Calm Calm - N/A   Clear
9:55 PM 62.1 °F 34.0 °F 35% 30.04 in 10.0 mi West 5.8 mph - N/A   Clear
10:55 PM 57.0 °F 36.0 °F 45% 30.04 in 10.0 mi Calm Calm - N/A   Clear
11:55 PM 55.0 °F 37.0 °F 51% 30.04 in 10.0 mi Calm Calm - N/A   Clear